SL-16 R/B

Satellite information

Favourite Embed

Satellite Type and Status

ROCKET BODYIN ORBIT

Key statistics

Satellite SL-16 R/B at a glance.

Uptime

9919

Days in orbit

Revolutions

≈ 14.3

Per day

Orbit

SSO

Sun Synchronous Orbit

Inclination

98.8

Latest

Satellite identification and parameters

Extended collection of information and parameters for SL-16 R/B.

Object identification

Identified? True

Debris? False

Object name: SL-16 R/B

International designator: 1998-043G

Object number (NORAD): 25400

Object ID (CCSDS): 25400

Country: COMMONWEALTH OF INDEPENDENT STATES (CIS)

Current information (Y/N): Y

RCS size: LARGE

Orbital parameters

Period: 100.983 minutes

Inclination: 98.7929 deg

SMA: 7183.308 km

Apoapsis: 811.986 km

Periapsis: 798.361 km

RAAN: 193.4655 deg

Eccentricy: 0.00094839

Argument of periapsis: 192.7334 deg

Mean anomaly: 167.3608 deg

Mean motion: 14.25988452 rev/day

Mean motion (dot): 0.0000016 rev/day2

B* drag term: 0.000086075266 1/REarth

Two-line elements (TLE)

Creation date: Sept. 3, 2025, 10:15 a.m.

Reference frame: TEME

Reference center: EARTH

Epoch: Sept. 3, 2025, 2:39 a.m. UTC

TLE line 0: 0 SL-16 R/B

TLE line 1: 1 25400U 98043G 25246.11081762 .00000160 00000-0 86075-4 0 9997

TLE line 2: 2 25400 98.7929 193.4655 0009484 192.7334 167.3608 14.25988452412257

Live tracking on map

Real-time ground track for satellite SL-16 R/B.

In-orbit conjunctions

A list of the most updated potential collisions computed for object SL-16 R/B.

Target Orbit TCA Probability of collision Miss distance Type
NOAA 16 DEB SSO 2025-08-11 10:15:45 0.0001297622 484.0 (m) DEBRIS
COSMOS 2251 DEB LEO 2024-09-22 03:36:02 0.0003369059 359.0 (m) DEBRIS
FENGYUN 1C DEB SSO 2024-08-30 23:44:18 0.0002064723 331.0 (m) DEBRIS
FENGYUN 1C DEB SSO 2024-08-07 23:57:47 0.000162034 337.0 (m) DEBRIS
COSMOS 2251 DEB LEO 2024-07-25 00:58:13 0.000124233 395.0 (m) DEBRIS

Associated space launch

Resurs-O1 N4 or Resurs-O1 2 is the fourth earth observation satellite in the Russian Resurs-O1 program.

SL-16 R/B was lifted into orbit during the mission ‘Zenit-2 | Resurs-O1’, on board a Zenit-2 space rocket.

The launch took place on July 10, 1998, 6:30 a.m. from 45/1.

For more information about the launch, click the button.

Launch to space Zenit-2 | Resurs-O1
Zenit-2 | Resurs-O1

Agency: N/A

Status: Launch Successful

Launch date: July 10, 1998, 6:30 a.m. UTC

Rocket: Zenit-2

Launch pad: 45/1

Location: Baikonur Cosmodrome, Republic of Kazakhstan

...

Latest news about this satellite

There are no fresh news available about this satellite. Check back as we update our databases every day.


Newsletter sign-up

Weekly statistics, charts and insights to help you stay on top of the space industry.